Location: Freistadt
(48.5112°N, 14.5013°E)
Time: 10:28:03
(UTC+02:00)

MOZHAYETS 4 - Pass Details

Date: 29 March 2023
Orbit: 657 x 675 km, 98.2° (Epoch: 03 June)

Event Time Altitude Azimuth Distance (km) Brightness Sun altitude
Exits shadow 03:15:55 35° 13° (NNE) 1,060 9.1 -31.2°
Drops below altitude 10° 03:18:46 10° 354° (N) 2,087 10.7 -30.9°
Sets 03:21:01 0° 350° (N) 3,007 11.6 -30.6°
